Time,TemperatureF,DewpointF,PressureIn,WindDirection,WindDirectionDegrees,WindSpeedMPH,WindSpeedGustMPH,Humidity,HourlyPrecipIn,Conditions,Clouds,dailyrainin,SoftwareType,DateUTC
2013-01-08 00:04:00,42.8,42.8,30.06,NW,316,0.0,0.0,100,0.00,,,0.00,Wunderground v.1.15,2013-01-08 08:04:00,
2013-01-08 00:09:00,42.6,42.6,30.06,NW,316,0.0,0.0,100,0.00,,,0.00,Wunderground v.1.15,2013-01-08 08:09:00,
2013-01-08 00:15:00,42.5,42.5,30.05,NW,316,0.0,1.0,100,0.00,,,0.00,Wunderground v.1.15,2013-01-08 08:15:00,
2013-01-08 00:20:00,42.3,42.3,30.05,NW,316,0.0,0.0,100,0.00,,,0.00,Wunderground v.1.15,2013-01-08 08:20:00,
2013-01-08 00:25:00,42.3,42.3,30.05,NW,316,0.0,1.0,100,0.00,,,0.00,Wunderground v.1.15,2013-01-08 08:25:00,
2013-01-08 00:31:00,42.5,42.5,30.06,NW,316,0.0,0.0,100,0.00,,,0.00,Wunderground v.1.15,2013-01-08 08:31:00,
2013-01-08 00:36:00,42.3,42.3,30.06,NW,316,0.0,1.0,100,0.00,,,0.00,Wunderground v.1.15,2013-01-08 08:36:00,
2013-01-08 00:41:00,42.5,42.5,30.06,NW,316,0.0,0.0,100,0.00,,,0.00,Wunderground v.1.15,2013-01-08 08:41:00,
2013-01-08 00:46:00,42.3,42.3,30.06,NW,316,0.0,0.0,100,0.00,,,0.00,Wunderground v.1.15,2013-01-08 08:46:00,
2013-01-08 00:52:00,42.2,42.2,30.06,NW,316,0.0,0.0,100,0.00,,,0.00,Wunderground v.1.15,2013-01-08 08:52:00,
2013-01-08 00:57:00,42.1,42.1,30.06,NW,316,0.0,0.0,100,0.00,,,0.00,Wunderground v.1.15,2013-01-08 08:57:00,
2013-01-08 01:02:00,41.9,41.9,30.06,NW,316,0.0,0.0,100,0.00,,,0.00,Wunderground v.1.15,2013-01-08 09:02:00,
2013-01-08 01:08:00,41.6,41.6,30.06,NW,316,0.0,0.0,100,0.00,,,0.00,Wunderground v.1.15,2013-01-08 09:08:00,
2013-01-08 01:13:00,41.6,41.6,30.06,NW,316,0.0,1.0,100,0.00,,,0.00,Wunderground v.1.15,2013-01-08 09:13:00,
2013-01-08 01:19:00,41.8,41.8,30.06,NW,316,0.0,2.0,100,0.00,,,0.00,Wunderground v.1.15,2013-01-08 09:19:00,
2013-01-08 01:24:00,41.6,41.6,30.06,NW,316,0.0,0.0,100,0.00,,,0.00,Wunderground v.1.15,2013-01-08 09:24:00,
2013-01-08 01:29:00,41.1,41.1,30.07,NW,316,1.0,1.0,100,0.00,,,0.00,Wunderground v.1.15,2013-01-08 09:29:00,
2013-01-08 01:34:00,40.9,40.9,30.07,NW,316,1.0,2.0,100,0.00,,,0.00,Wunderground v.1.15,2013-01-08 09:34:00,
2013-01-08 01:40:00,40.9,40.9,30.07,NW,316,0.0,0.0,100,0.00,,,0.00,Wunderground v.1.15,2013-01-08 09:40:00,
2013-01-08 01:45:00,40.8,40.8,30.07,NW,316,0.0,0.0,100,0.00,,,0.00,Wunderground v.1.15,2013-01-08 09:45:00,
2013-01-08 01:50:00,41.1,41.1,30.07,NW,316,0.0,0.0,100,0.00,,,0.00,Wunderground v.1.15,2013-01-08 09:50:00,
2013-01-08 01:56:00,41.2,41.2,30.07,NW,316,0.0,0.0,100,0.00,,,0.00,Wunderground v.1.15,2013-01-08 09:56:00,
2013-01-08 02:01:00,41.1,41.1,30.07,NW,316,0.0,0.0,100,0.00,,,0.00,Wunderground v.1.15,2013-01-08 10:01:00,
2013-01-08 02:06:00,41.1,41.1,30.07,NW,316,0.0,0.0,100,0.00,,,0.00,Wunderground v.1.15,2013-01-08 10:06:00,
2013-01-08 02:11:00,41.1,41.1,30.07,NW,316,0.0,0.0,100,0.00,,,0.00,Wunderground v.1.15,2013-01-08 10:11:00,
2013-01-08 02:16:00,41.1,41.1,30.08,NW,316,0.0,0.0,100,0.00,,,0.00,Wunderground v.1.15,2013-01-08 10:16:00,
2013-01-08 02:21:00,41.3,41.3,30.08,NW,316,0.0,0.0,100,0.00,,,0.00,Wunderground v.1.15,2013-01-08 10:21:00,
2013-01-08 02:26:00,41.6,41.6,30.08,NW,316,0.0,0.0,100,0.00,,,0.00,Wunderground v.1.15,2013-01-08 10:26:00,
2013-01-08 02:31:00,41.6,41.6,30.08,NW,316,0.0,0.0,100,0.00,,,0.00,Wunderground v.1.15,2013-01-08 10:31:00,
2013-01-08 02:36:00,41.5,41.5,30.08,NW,316,0.0,0.0,100,0.00,,,0.00,Wunderground v.1.15,2013-01-08 10:36:00,
2013-01-08 02:41:00,41.3,41.3,30.08,NW,316,0.0,0.0,100,0.00,,,0.00,Wunderground v.1.15,2013-01-08 10:41:00,
2013-01-08 02:46:00,41.2,41.2,30.08,NW,316,0.0,0.0,100,0.00,,,0.00,Wunderground v.1.15,2013-01-08 10:46:00,
2013-01-08 02:51:00,41.1,41.1,30.08,NW,316,0.0,0.0,100,0.00,,,0.00,Wunderground v.1.15,2013-01-08 10:51:00,
2013-01-08 02:56:00,40.9,40.9,30.08,NW,316,0.0,0.0,100,0.00,,,0.00,Wunderground v.1.15,2013-01-08 10:56:00,
2013-01-08 03:01:00,40.8,40.8,30.08,NW,316,0.0,0.0,100,0.00,,,0.00,Wunderground v.1.15,2013-01-08 11:01:00,
2013-01-08 03:06:00,40.8,40.8,30.08,NW,316,0.0,0.0,100,0.00,,,0.00,Wunderground v.1.15,2013-01-08 11:06:00,
2013-01-08 03:11:00,40.6,40.6,30.08,NW,316,0.0,0.0,100,0.00,,,0.00,Wunderground v.1.15,2013-01-08 11:11:00,
2013-01-08 03:16:00,40.5,40.5,30.08,NW,316,0.0,0.0,100,0.00,,,0.00,Wunderground v.1.15,2013-01-08 11:16:00,
2013-01-08 03:21:00,40.3,40.3,30.08,NW,316,0.0,0.0,100,0.00,,,0.00,Wunderground v.1.15,2013-01-08 11:21:00,
2013-01-08 03:26:00,40.6,40.6,30.08,NW,316,0.0,3.0,100,0.00,,,0.00,Wunderground v.1.15,2013-01-08 11:26:00,
2013-01-08 03:31:00,40.6,40.6,30.07,NW,316,0.0,1.0,100,0.00,,,0.00,Wunderground v.1.15,2013-01-08 11:31:00,
2013-01-08 03:36:00,40.3,40.3,30.07,NW,316,0.0,1.0,100,0.00,,,0.00,Wunderground v.1.15,2013-01-08 11:36:00,
2013-01-08 03:41:00,40.5,40.5,30.07,NW,316,0.0,0.0,100,0.00,,,0.00,Wunderground v.1.15,2013-01-08 11:41:00,
2013-01-08 03:46:00,40.3,40.3,30.07,NW,316,0.0,1.0,100,0.00,,,0.00,Wunderground v.1.15,2013-01-08 11:46:00,
2013-01-08 03:51:00,40.3,40.3,30.07,NW,316,0.0,0.0,100,0.00,,,0.00,Wunderground v.1.15,2013-01-08 11:51:00,
2013-01-08 03:56:00,39.9,39.9,30.07,NW,316,0.0,0.0,100,0.00,,,0.00,Wunderground v.1.15,2013-01-08 11:56:00,
2013-01-08 04:01:00,39.8,39.8,30.06,NW,316,1.0,1.0,100,0.00,,,0.00,Wunderground v.1.15,2013-01-08 12:01:00,
2013-01-08 04:06:00,39.9,39.9,30.06,NW,316,0.0,1.0,100,0.00,,,0.00,Wunderground v.1.15,2013-01-08 12:06:00,
2013-01-08 04:12:00,39.9,39.9,30.06,NW,316,0.0,0.0,100,0.00,,,0.00,Wunderground v.1.15,2013-01-08 12:12:00,
2013-01-08 04:16:00,40.1,40.1,30.06,NW,316,0.0,2.0,100,0.00,,,0.00,Wunderground v.1.15,2013-01-08 12:16:00,
2013-01-08 04:22:00,40.1,40.1,30.06,NW,316,2.0,3.0,100,0.00,,,0.00,Wunderground v.1.15,2013-01-08 12:22:00,
2013-01-08 04:27:00,40.1,40.1,30.06,NW,316,0.0,3.0,100,0.00,,,0.00,Wunderground v.1.15,2013-01-08 12:27:00,
2013-01-08 04:32:00,40.3,40.3,30.05,NW,316,0.0,0.0,100,0.00,,,0.00,Wunderground v.1.15,2013-01-08 12:32:00,
2013-01-08 04:37:00,40.5,40.5,30.05,NW,316,1.0,2.0,100,0.00,,,0.00,Wunderground v.1.15,2013-01-08 12:37:00,
2013-01-08 04:42:00,40.9,40.9,30.05,NW,316,1.0,1.0,100,0.00,,,0.00,Wunderground v.1.15,2013-01-08 12:42:00,
2013-01-08 04:47:00,40.9,40.9,30.05,NW,316,2.0,2.0,100,0.00,,,0.00,Wunderground v.1.15,2013-01-08 12:47:00,
2013-01-08 04:52:00,41.1,41.1,30.05,NW,316,0.0,0.0,100,0.00,,,0.00,Wunderground v.1.15,2013-01-08 12:52:00,
2013-01-08 04:57:00,40.9,40.9,30.05,NW,316,0.0,0.0,100,0.00,,,0.00,Wunderground v.1.15,2013-01-08 12:57:00,
2013-01-08 05:02:00,40.5,40.5,30.05,NW,316,0.0,0.0,100,0.00,,,0.00,Wunderground v.1.15,2013-01-08 13:02:00,
2013-01-08 05:07:00,40.3,40.3,30.05,NW,316,1.0,2.0,100,0.00,,,0.00,Wunderground v.1.15,2013-01-08 13:07:00,
2013-01-08 05:12:00,40.8,40.8,30.05,NW,316,0.0,0.0,100,0.00,,,0.00,Wunderground v.1.15,2013-01-08 13:12:00,
2013-01-08 05:17:00,40.5,40.5,30.05,NW,316,0.0,1.0,100,0.00,,,0.00,Wunderground v.1.15,2013-01-08 13:17:00,
2013-01-08 05:22:00,40.5,40.5,30.05,NW,316,0.0,0.0,100,0.00,,,0.00,Wunderground v.1.15,2013-01-08 13:22:00,
2013-01-08 05:27:00,40.6,40.6,30.05,NW,316,0.0,0.0,100,0.00,,,0.00,Wunderground v.1.15,2013-01-08 13:27:00,
2013-01-08 05:32:00,40.6,40.6,30.05,NW,316,0.0,0.0,100,0.00,,,0.00,Wunderground v.1.15,2013-01-08 13:32:00,
2013-01-08 05:37:00,40.6,40.6,30.05,NW,316,0.0,0.0,100,0.00,,,0.00,Wunderground v.1.15,2013-01-08 13:37:00,
2013-01-08 05:42:00,40.6,40.6,30.05,NW,316,0.0,0.0,100,0.00,,,0.00,Wunderground v.1.15,2013-01-08 13:42:00,
2013-01-08 05:47:00,40.6,40.6,30.06,NW,316,1.0,2.0,100,0.00,,,0.00,Wunderground v.1.15,2013-01-08 13:47:00,
2013-01-08 05:52:00,41.6,41.6,30.06,NW,316,0.0,2.0,100,0.00,,,0.00,Wunderground v.1.15,2013-01-08 13:52:00,
2013-01-08 05:57:00,41.5,41.5,30.06,NW,316,0.0,2.0,100,0.00,,,0.00,Wunderground v.1.15,2013-01-08 13:57:00,
2013-01-08 06:02:00,41.1,41.1,30.05,NW,316,0.0,0.0,100,0.00,,,0.00,Wunderground v.1.15,2013-01-08 14:02:00,
2013-01-08 06:07:00,40.8,40.8,30.05,NW,316,0.0,0.0,100,0.00,,,0.00,Wunderground v.1.15,2013-01-08 14:07:00,
2013-01-08 06:12:00,41.3,41.3,30.05,NW,316,0.0,0.0,100,0.00,,,0.00,Wunderground v.1.15,2013-01-08 14:12:00,
2013-01-08 06:17:00,41.6,41.6,30.06,NW,316,0.0,0.0,100,0.00,,,0.00,Wunderground v.1.15,2013-01-08 14:17:00,
2013-01-08 06:22:00,42.3,42.3,30.06,NW,316,1.0,2.0,100,0.00,,,0.00,Wunderground v.1.15,2013-01-08 14:22:00,
2013-01-08 06:27:00,42.9,42.9,30.06,NW,316,0.0,2.0,100,0.00,,,0.00,Wunderground v.1.15,2013-01-08 14:27:00,
2013-01-08 06:32:00,42.9,42.9,30.06,NW,316,0.0,0.0,100,0.00,,,0.00,Wunderground v.1.15,2013-01-08 14:32:00,
2013-01-08 06:37:00,42.9,42.9,30.06,NW,316,0.0,0.0,100,0.00,,,0.00,Wunderground v.1.15,2013-01-08 14:37:00,
2013-01-08 06:42:00,42.9,42.9,30.06,NW,316,0.0,0.0,100,0.00,,,0.00,Wunderground v.1.15,2013-01-08 14:42:00,
2013-01-08 06:47:00,42.6,42.6,30.07,NW,316,0.0,0.0,100,0.00,,,0.00,Wunderground v.1.15,2013-01-08 14:47:00,
2013-01-08 06:52:00,41.6,41.6,30.07,NW,316,0.0,0.0,100,0.00,,,0.00,Wunderground v.1.15,2013-01-08 14:52:00,
2013-01-08 06:57:00,41.1,41.1,30.07,NW,316,1.0,2.0,100,0.00,,,0.00,Wunderground v.1.15,2013-01-08 14:57:00,
2013-01-08 07:02:00,41.1,41.1,30.07,NW,316,0.0,0.0,100,0.00,,,0.00,Wunderground v.1.15,2013-01-08 15:02:00,
2013-01-08 07:07:00,41.3,41.3,30.07,NW,316,0.0,1.0,100,0.00,,,0.00,Wunderground v.1.15,2013-01-08 15:07:00,
2013-01-08 07:12:00,41.8,41.8,30.07,NW,316,0.0,2.0,100,0.00,,,0.00,Wunderground v.1.15,2013-01-08 15:12:00,
2013-01-08 07:17:00,41.8,41.8,30.06,NW,316,0.0,2.0,100,0.00,,,0.00,Wunderground v.1.15,2013-01-08 15:17:00,
2013-01-08 07:22:00,41.5,41.5,30.06,NW,316,1.0,2.0,100,0.00,,,0.00,Wunderground v.1.15,2013-01-08 15:22:00,
2013-01-08 07:27:00,41.5,41.5,30.06,NW,316,0.0,2.0,100,0.00,,,0.00,Wunderground v.1.15,2013-01-08 15:27:00,
2013-01-08 07:32:00,41.2,41.2,30.07,NW,316,0.0,2.0,100,0.00,,,0.00,Wunderground v.1.15,2013-01-08 15:32:00,
2013-01-08 07:37:00,41.8,41.8,30.07,NW,316,0.0,2.0,100,0.00,,,0.00,Wunderground v.1.15,2013-01-08 15:37:00,
2013-01-08 07:42:00,42.3,42.3,30.07,NW,316,0.0,1.0,100,0.00,,,0.00,Wunderground v.1.15,2013-01-08 15:42:00,
2013-01-08 07:47:00,42.8,42.8,30.07,NW,316,1.0,2.0,100,0.00,,,0.00,Wunderground v.1.15,2013-01-08 15:47:00,
2013-01-08 07:53:00,43.6,43.6,30.07,NW,316,0.0,2.0,100,0.00,,,0.00,Wunderground v.1.15,2013-01-08 15:53:00,
2013-01-08 07:58:00,44.5,44.5,30.07,NW,316,0.0,2.0,100,0.00,,,0.00,Wunderground v.1.15,2013-01-08 15:58:00,
2013-01-08 08:03:00,44.9,44.9,30.07,NW,316,0.0,1.0,100,0.00,,,0.00,Wunderground v.1.15,2013-01-08 16:03:00,
2013-01-08 08:08:00,45.5,45.5,30.07,NW,316,0.0,1.0,100,0.00,,,0.00,Wunderground v.1.15,2013-01-08 16:08:00,
2013-01-08 08:13:00,45.8,45.8,30.07,NW,316,0.0,0.0,100,0.00,,,0.00,Wunderground v.1.15,2013-01-08 16:13:00,
2013-01-08 08:18:00,45.8,45.8,30.08,NW,316,0.0,0.0,100,0.00,,,0.00,Wunderground v.1.15,2013-01-08 16:18:00,
2013-01-08 08:23:00,46.1,46.1,30.08,NW,316,0.0,0.0,100,0.00,,,0.00,Wunderground v.1.15,2013-01-08 16:23:00,
2013-01-08 08:28:00,46.2,46.2,30.08,NW,316,0.0,0.0,100,0.00,,,0.00,Wunderground v.1.15,2013-01-08 16:28:00,
2013-01-08 08:33:00,46.4,46.4,30.09,NW,316,0.0,0.0,100,0.00,,,0.00,Wunderground v.1.15,2013-01-08 16:33:00,
2013-01-08 08:38:00,46.1,46.1,30.09,NW,316,0.0,0.0,100,0.00,,,0.00,Wunderground v.1.15,2013-01-08 16:38:00,
2013-01-08 08:43:00,45.7,45.7,30.09,NW,316,0.0,0.0,100,0.00,,,0.00,Wunderground v.1.15,2013-01-08 16:43:00,
2013-01-08 08:48:00,45.8,45.8,30.09,NW,316,0.0,0.0,100,0.00,,,0.00,Wunderground v.1.15,2013-01-08 16:48:00,
2013-01-08 08:53:00,46.2,46.2,30.09,NW,316,0.0,0.0,100,0.00,,,0.00,Wunderground v.1.15,2013-01-08 16:53:00,
2013-01-08 08:58:00,46.7,46.7,30.09,NW,316,0.0,0.0,100,0.00,,,0.00,Wunderground v.1.15,2013-01-08 16:58:00,
2013-01-08 09:03:00,47.1,47.1,30.09,NW,316,0.0,0.0,100,0.00,,,0.00,Wunderground v.1.15,2013-01-08 17:03:00,
2013-01-08 09:08:00,48.0,48.0,30.09,NW,316,0.0,2.0,100,0.00,,,0.00,Wunderground v.1.15,2013-01-08 17:08:00,
2013-01-08 09:13:00,48.5,48.5,30.09,NW,316,0.0,0.0,100,0.00,,,0.00,Wunderground v.1.15,2013-01-08 17:13:00,
2013-01-08 09:18:00,48.6,48.6,30.09,NW,316,0.0,0.0,100,0.00,,,0.00,Wunderground v.1.15,2013-01-08 17:18:00,
2013-01-08 09:23:00,48.9,48.9,30.09,NW,316,0.0,0.0,100,0.00,,,0.00,Wunderground v.1.15,2013-01-08 17:23:00,
2013-01-08 09:28:00,49.2,49.2,30.09,NW,316,0.0,0.0,100,0.00,,,0.00,Wunderground v.1.15,2013-01-08 17:28:00,
2013-01-08 09:33:00,49.5,49.5,30.09,NW,316,0.0,0.0,100,0.00,,,0.00,Wunderground v.1.15,2013-01-08 17:33:00,
2013-01-08 09:38:00,50.1,50.1,30.09,NW,316,0.0,0.0,100,0.00,,,0.00,Wunderground v.1.15,2013-01-08 17:38:00,
2013-01-08 09:43:00,50.4,50.4,30.09,NW,316,0.0,0.0,100,0.00,,,0.00,Wunderground v.1.15,2013-01-08 17:43:00,
2013-01-08 09:48:00,50.7,50.7,30.09,NW,316,0.0,0.0,100,0.00,,,0.00,Wunderground v.1.15,2013-01-08 17:48:00,
2013-01-08 09:53:00,51.7,51.4,30.09,NW,316,0.0,0.0,99,0.00,,,0.00,Wunderground v.1.15,2013-01-08 17:53:00,
2013-01-08 09:58:00,52.9,51.2,30.09,NW,316,0.0,0.0,94,0.00,,,0.00,Wunderground v.1.15,2013-01-08 17:58:00,
2013-01-08 10:03:00,53.5,51.2,30.09,NW,316,0.0,0.0,92,0.00,,,0.00,Wunderground v.1.15,2013-01-08 18:03:00,
2013-01-08 10:08:00,54.4,51.5,30.09,NW,316,0.0,0.0,90,0.00,,,0.00,Wunderground v.1.15,2013-01-08 18:08:00,
2013-01-08 10:13:00,55.0,51.8,30.09,NW,316,0.0,1.0,89,0.00,,,0.00,Wunderground v.1.15,2013-01-08 18:13:00,
2013-01-08 10:18:00,55.4,51.6,30.08,NW,316,0.0,2.0,87,0.00,,,0.00,Wunderground v.1.15,2013-01-08 18:18:00,
2013-01-08 10:23:00,55.7,51.3,30.08,NW,311,0.0,2.0,85,0.00,,,0.00,Wunderground v.1.15,2013-01-08 18:23:00,
2013-01-08 10:28:00,56.0,50.9,30.08,WNW,294,0.0,3.0,83,0.00,,,0.00,Wunderground v.1.15,2013-01-08 18:28:00,
2013-01-08 10:33:00,56.5,51.1,30.08,WNW,294,0.0,0.0,82,0.00,,,0.00,Wunderground v.1.15,2013-01-08 18:33:00,
2013-01-08 10:38:00,56.7,50.6,30.08,WNW,294,0.0,1.0,80,0.00,,,0.00,Wunderground v.1.15,2013-01-08 18:38:00,
2013-01-08 10:43:00,56.9,50.5,30.08,West,276,0.0,3.0,79,0.00,,,0.00,Wunderground v.1.15,2013-01-08 18:43:00,
2013-01-08 10:48:00,57.3,50.8,30.08,West,276,0.0,3.0,79,0.00,,,0.00,Wunderground v.1.15,2013-01-08 18:48:00,
2013-01-08 10:53:00,57.6,50.8,30.08,West,278,0.0,0.0,78,0.00,,,0.00,Wunderground v.1.15,2013-01-08 18:53:00,
2013-01-08 10:58:00,58.0,50.5,30.08,West,278,0.0,1.0,76,0.00,,,0.00,Wunderground v.1.15,2013-01-08 18:58:00,
2013-01-08 11:03:00,58.3,50.4,30.06,West,278,0.0,1.0,75,0.00,,,0.00,Wunderground v.1.15,2013-01-08 19:03:00,
2013-01-08 11:08:00,59.0,49.6,30.06,NNW,338,0.0,3.0,71,0.00,,,0.00,Wunderground v.1.15,2013-01-08 19:08:00,
2013-01-08 11:13:00,59.8,49.6,30.06,NNW,328,0.0,2.0,69,0.00,,,0.00,Wunderground v.1.15,2013-01-08 19:13:00,
2013-01-08 11:18:00,60.4,50.6,30.06,East,82,0.0,2.0,70,0.00,,,0.00,Wunderground v.1.15,2013-01-08 19:18:00,
2013-01-08 11:23:00,61.2,49.7,30.06,East,81,0.0,2.0,66,0.00,,,0.00,Wunderground v.1.15,2013-01-08 19:23:00,
2013-01-08 11:28:00,61.6,49.3,30.06,East,79,0.0,2.0,64,0.00,,,0.00,Wunderground v.1.15,2013-01-08 19:28:00,
2013-01-08 11:33:00,61.8,51.5,30.06,SSE,153,0.0,4.0,69,0.00,,,0.00,Wunderground v.1.15,2013-01-08 19:33:00,
2013-01-08 11:38:00,60.7,51.2,30.06,WSW,240,3.0,5.0,71,0.00,,,0.00,Wunderground v.1.15,2013-01-08 19:38:00,
2013-01-08 11:43:00,59.6,51.7,30.06,West,267,2.0,4.0,75,0.00,,,0.00,Wunderground v.1.15,2013-01-08 19:43:00,
2013-01-08 11:48:00,59.5,51.9,30.05,West,267,1.0,4.0,76,0.00,,,0.00,Wunderground v.1.15,2013-01-08 19:48:00,
2013-01-08 11:53:00,59.8,51.9,30.05,West,267,0.0,2.0,75,0.00,,,0.00,Wunderground v.1.15,2013-01-08 19:53:00,
2013-01-08 11:58:00,60.4,52.1,30.05,West,267,1.0,4.0,74,0.00,,,0.00,Wunderground v.1.15,2013-01-08 19:58:00,
2013-01-08 12:03:00,60.7,52.4,30.05,West,268,2.0,4.0,74,0.00,,,0.00,Wunderground v.1.15,2013-01-08 20:03:00,
2013-01-08 12:08:00,60.5,51.8,30.05,WSW,248,2.0,4.0,73,0.00,,,0.00,Wunderground v.1.15,2013-01-08 20:08:00,
2013-01-08 12:13:00,60.5,52.2,30.05,West,278,2.0,3.0,74,0.00,,,0.00,Wunderground v.1.15,2013-01-08 20:13:00,
2013-01-08 12:18:00,60.9,52.6,30.04,WSW,252,0.0,3.0,74,0.00,,,0.00,Wunderground v.1.15,2013-01-08 20:18:00,
2013-01-08 12:23:00,60.9,52.6,30.04,West,278,3.0,3.0,74,0.00,,,0.00,Wunderground v.1.15,2013-01-08 20:23:00,
2013-01-08 12:28:00,60.9,52.6,30.04,WNW,288,2.0,4.0,74,0.00,,,0.00,Wunderground v.1.15,2013-01-08 20:28:00,
2013-01-08 12:33:00,60.9,52.9,30.03,WNW,288,2.0,3.0,75,0.00,,,0.00,Wunderground v.1.15,2013-01-08 20:33:00,
2013-01-08 12:38:00,60.5,52.2,30.03,West,279,3.0,5.0,74,0.00,,,0.00,Wunderground v.1.15,2013-01-08 20:38:00,
2013-01-08 12:43:00,60.2,52.2,30.03,West,279,0.0,3.0,75,0.00,,,0.00,Wunderground v.1.15,2013-01-08 20:43:00,
2013-01-08 12:48:00,60.7,52.7,30.03,West,279,1.0,3.0,75,0.00,,,0.00,Wunderground v.1.15,2013-01-08 20:48:00,
2013-01-08 12:53:00,61.3,52.9,30.03,North,1,2.0,4.0,74,0.00,,,0.00,Wunderground v.1.15,2013-01-08 20:53:00,
2013-01-08 12:58:00,61.2,52.8,30.03,SW,233,1.0,4.0,74,0.00,,,0.00,Wunderground v.1.15,2013-01-08 20:58:00,
2013-01-08 13:03:00,60.9,52.9,30.03,SW,233,0.0,1.0,75,0.00,,,0.00,Wunderground v.1.15,2013-01-08 21:03:00,
2013-01-08 13:08:00,60.4,52.8,30.03,SW,233,1.0,2.0,76,0.00,,,0.00,Wunderground v.1.15,2013-01-08 21:08:00,
2013-01-08 13:13:00,60.1,52.9,30.03,WSW,241,0.0,1.0,77,0.00,,,0.00,Wunderground v.1.15,2013-01-08 21:13:00,
2013-01-08 13:18:00,59.5,52.6,30.03,WNW,297,0.0,5.0,78,0.00,,,0.00,Wunderground v.1.15,2013-01-08 21:18:00,
2013-01-08 13:23:00,59.2,52.7,30.03,North,353,1.0,1.0,79,0.00,,,0.00,Wunderground v.1.15,2013-01-08 21:23:00,
2013-01-08 13:28:00,59.2,53.0,30.02,West,278,0.0,2.0,80,0.00,,,0.00,Wunderground v.1.15,2013-01-08 21:28:00,
2013-01-08 13:33:00,59.3,53.5,30.02,North,353,0.0,3.0,81,0.00,,,0.00,Wunderground v.1.15,2013-01-08 21:33:00,
2013-01-08 13:38:00,59.5,53.7,30.02,North,353,0.0,3.0,81,0.00,,,0.00,Wunderground v.1.15,2013-01-08 21:38:00,
2013-01-08 13:43:00,59.5,53.7,30.02,West,268,0.0,3.0,81,0.00,,,0.00,Wunderground v.1.15,2013-01-08 21:43:00,
2013-01-08 13:48:00,59.6,53.8,30.02,West,268,0.0,3.0,81,0.00,,,0.00,Wunderground v.1.15,2013-01-08 21:48:00,
2013-01-08 13:53:00,59.9,53.7,30.02,West,268,0.0,2.0,80,0.00,,,0.00,Wunderground v.1.15,2013-01-08 21:53:00,
2013-01-08 13:58:00,59.9,53.4,30.02,West,268,1.0,2.0,79,0.00,,,0.00,Wunderground v.1.15,2013-01-08 21:58:00,
2013-01-08 14:03:00,60.1,52.5,30.02,SE,131,2.0,2.0,76,0.00,,,0.00,Wunderground v.1.15,2013-01-08 22:03:00,
2013-01-08 14:08:00,60.7,51.2,30.02,SSE,161,3.0,5.0,71,0.00,,,0.00,Wunderground v.1.15,2013-01-08 22:08:00,
2013-01-08 14:14:00,61.5,52.0,30.02,West,281,4.0,4.0,71,0.00,,,0.00,Wunderground v.1.15,2013-01-08 22:14:00,
2013-01-08 14:19:00,61.2,52.8,30.02,WNW,282,0.0,4.0,74,0.00,,,0.00,Wunderground v.1.15,2013-01-08 22:19:00,
2013-01-08 14:24:00,60.5,52.5,30.02,ESE,122,1.0,3.0,75,0.00,,,0.00,Wunderground v.1.15,2013-01-08 22:24:00,
2013-01-08 14:29:00,60.2,52.6,30.02,South,191,0.0,3.0,76,0.00,,,0.00,Wunderground v.1.15,2013-01-08 22:29:00,
2013-01-08 14:34:00,59.9,52.3,30.02,South,191,0.0,2.0,76,0.00,,,0.00,Wunderground v.1.15,2013-01-08 22:34:00,
2013-01-08 14:39:00,60.1,52.5,30.02,North,356,2.0,5.0,76,0.00,,,0.00,Wunderground v.1.15,2013-01-08 22:39:00,
2013-01-08 14:44:00,60.1,52.9,30.02,WSW,245,3.0,4.0,77,0.00,,,0.00,Wunderground v.1.15,2013-01-08 22:44:00,
2013-01-08 14:49:00,60.1,52.5,30.02,WNW,301,2.0,4.0,76,0.00,,,0.00,Wunderground v.1.15,2013-01-08 22:49:00,
2013-01-08 14:54:00,59.9,52.0,30.02,WSW,252,0.0,6.0,75,0.00,,,0.00,Wunderground v.1.15,2013-01-08 22:54:00,
2013-01-08 14:59:00,59.9,52.3,30.02,WSW,251,0.0,6.0,76,0.00,,,0.00,Wunderground v.1.15,2013-01-08 22:59:00,
2013-01-08 15:04:00,59.6,52.0,30.02,WSW,251,2.0,2.0,76,0.00,,,0.00,Wunderground v.1.15,2013-01-08 23:04:00,
2013-01-08 15:09:00,59.8,52.2,30.02,West,264,1.0,3.0,76,0.00,,,0.00,Wunderground v.1.15,2013-01-08 23:09:00,
2013-01-08 15:14:00,59.8,51.5,30.02,WNW,299,0.0,4.0,74,0.00,,,0.00,Wunderground v.1.15,2013-01-08 23:14:00,
2013-01-08 15:19:00,60.2,50.8,30.02,West,265,2.0,4.0,71,0.00,,,0.00,Wunderground v.1.15,2013-01-08 23:19:00,
2013-01-08 15:24:00,60.5,51.0,30.02,West,267,4.0,4.0,71,0.00,,,0.00,Wunderground v.1.15,2013-01-08 23:24:00,
2013-01-08 15:29:00,60.5,51.4,30.01,West,267,2.0,4.0,72,0.00,,,0.00,Wunderground v.1.15,2013-01-08 23:29:00,
2013-01-08 15:34:00,60.5,51.4,30.01,West,267,0.0,2.0,72,0.00,,,0.00,Wunderground v.1.15,2013-01-08 23:34:00,
2013-01-08 15:39:00,60.1,51.8,30.01,West,272,1.0,4.0,74,0.00,,,0.00,Wunderground v.1.15,2013-01-08 23:39:00,
2013-01-08 15:44:00,59.3,51.4,30.01,West,259,0.0,5.0,75,0.00,,,0.00,Wunderground v.1.15,2013-01-08 23:44:00,
2013-01-08 15:49:00,58.7,51.5,30.01,West,259,4.0,5.0,77,0.00,,,0.00,Wunderground v.1.15,2013-01-08 23:49:00,
2013-01-08 15:54:00,58.0,51.2,30.01,West,259,1.0,3.0,78,0.00,,,0.00,Wunderground v.1.15,2013-01-08 23:54:00,
2013-01-08 15:59:00,57.3,50.5,30.02,West,262,2.0,5.0,78,0.00,,,0.00,Wunderground v.1.15,2013-01-08 23:59:00,
2013-01-08 16:04:00,56.9,50.5,30.02,West,262,0.0,3.0,79,0.00,,,0.00,Wunderground v.1.15,2013-01-09 00:04:00,
2013-01-08 16:09:00,56.5,50.1,30.02,NW,314,2.0,3.0,79,0.00,,,0.00,Wunderground v.1.15,2013-01-09 00:09:00,
2013-01-08 16:14:00,56.3,50.5,30.02,West,269,1.0,4.0,81,0.00,,,0.00,Wunderground v.1.15,2013-01-09 00:14:00,
2013-01-08 16:19:00,56.0,50.3,30.02,West,269,0.0,4.0,81,0.00,,,0.00,Wunderground v.1.15,2013-01-09 00:19:00,
2013-01-08 16:24:00,55.7,50.3,30.02,West,263,0.0,4.0,82,0.00,,,0.00,Wunderground v.1.15,2013-01-09 00:24:00,
2013-01-08 16:29:00,55.6,50.8,30.01,West,263,0.0,4.0,84,0.00,,,0.00,Wunderground v.1.15,2013-01-09 00:29:00,
2013-01-08 16:34:00,55.3,50.9,30.01,West,263,0.0,2.0,85,0.00,,,0.00,Wunderground v.1.15,2013-01-09 00:34:00,
2013-01-08 16:39:00,55.0,51.2,30.01,West,263,0.0,2.0,87,0.00,,,0.00,Wunderground v.1.15,2013-01-09 00:39:00,
2013-01-08 16:44:00,54.7,50.9,30.00,West,263,0.0,1.0,87,0.00,,,0.00,Wunderground v.1.15,2013-01-09 00:44:00,
2013-01-08 16:49:00,54.7,50.9,30.00,West,263,0.0,1.0,87,0.00,,,0.00,Wunderground v.1.15,2013-01-09 00:49:00,
2013-01-08 16:54:00,54.7,50.3,30.00,West,263,0.0,1.0,85,0.00,,,0.00,Wunderground v.1.15,2013-01-09 00:54:00,
2013-01-08 16:59:00,54.7,50.3,30.00,West,263,1.0,2.0,85,0.00,,,0.00,Wunderground v.1.15,2013-01-09 00:59:00,
2013-01-08 17:04:00,54.5,50.1,30.00,West,263,0.0,1.0,85,0.00,,,0.00,Wunderground v.1.15,2013-01-09 01:04:00,
2013-01-08 17:09:00,54.1,50.0,30.00,West,263,0.0,1.0,86,0.00,,,0.00,Wunderground v.1.15,2013-01-09 01:09:00,
2013-01-08 17:14:00,53.9,49.8,30.00,West,263,0.0,1.0,86,0.00,,,0.00,Wunderground v.1.15,2013-01-09 01:14:00,
2013-01-08 17:19:00,54.1,49.7,30.00,West,263,0.0,1.0,85,0.00,,,0.00,Wunderground v.1.15,2013-01-09 01:19:00,
2013-01-08 17:24:00,54.1,49.4,30.00,West,263,0.0,0.0,84,0.00,,,0.00,Wunderground v.1.15,2013-01-09 01:24:00,
2013-01-08 17:29:00,53.9,48.9,30.00,West,263,0.0,1.0,83,0.00,,,0.00,Wunderground v.1.15,2013-01-09 01:29:00,
2013-01-08 17:34:00,53.6,48.9,30.00,WNW,290,2.0,2.0,84,0.00,,,0.00,Wunderground v.1.15,2013-01-09 01:34:00,
2013-01-08 17:39:00,53.3,49.2,30.00,WNW,290,0.0,2.0,86,0.00,,,0.00,Wunderground v.1.15,2013-01-09 01:39:00,
2013-01-08 17:44:00,53.3,48.9,30.00,WNW,298,2.0,2.0,85,0.00,,,0.00,Wunderground v.1.15,2013-01-09 01:44:00,
2013-01-08 17:49:00,53.2,49.1,30.00,WNW,292,0.0,3.0,86,0.00,,,0.00,Wunderground v.1.15,2013-01-09 01:49:00,
2013-01-08 17:54:00,53.3,48.9,30.00,WNW,292,2.0,2.0,85,0.00,,,0.00,Wunderground v.1.15,2013-01-09 01:54:00,
2013-01-08 18:00:00,53.2,48.8,30.01,WNW,292,1.0,2.0,85,0.00,,,0.00,Wunderground v.1.15,2013-01-09 02:00:00,
2013-01-08 18:05:00,53.1,48.7,30.01,WNW,292,0.0,1.0,85,0.00,,,0.00,Wunderground v.1.15,2013-01-09 02:05:00,
2013-01-08 18:10:00,53.1,48.4,30.01,WNW,292,1.0,1.0,84,0.00,,,0.00,Wunderground v.1.15,2013-01-09 02:10:00,
2013-01-08 18:15:00,53.1,48.4,30.02,WNW,292,1.0,2.0,84,0.00,,,0.00,Wunderground v.1.15,2013-01-09 02:15:00,
2013-01-08 18:20:00,53.2,48.5,30.02,WNW,292,0.0,0.0,84,0.00,,,0.00,Wunderground v.1.15,2013-01-09 02:20:00,
2013-01-08 18:25:00,52.8,48.4,30.02,WNW,292,0.0,1.0,85,0.00,,,0.00,Wunderground v.1.15,2013-01-09 02:25:00,
2013-01-08 18:30:00,52.6,48.5,30.01,WNW,292,1.0,1.0,86,0.00,,,0.00,Wunderground v.1.15,2013-01-09 02:30:00,
2013-01-08 18:35:00,52.6,48.8,30.01,WNW,292,0.0,2.0,87,0.00,,,0.00,Wunderground v.1.15,2013-01-09 02:35:00,
2013-01-08 18:40:00,52.5,48.7,30.01,WNW,292,0.0,0.0,87,0.00,,,0.00,Wunderground v.1.15,2013-01-09 02:40:00,
2013-01-08 18:45:00,52.3,48.9,30.02,WNW,292,0.0,1.0,88,0.00,,,0.00,Wunderground v.1.15,2013-01-09 02:45:00,
2013-01-08 18:50:00,51.9,48.5,30.02,WNW,292,0.0,0.0,88,0.00,,,0.00,Wunderground v.1.15,2013-01-09 02:50:00,
2013-01-08 18:55:00,51.7,48.3,30.02,WNW,292,0.0,0.0,88,0.00,,,0.00,Wunderground v.1.15,2013-01-09 02:55:00,
2013-01-08 19:00:00,51.4,47.7,30.03,WNW,292,0.0,0.0,87,0.00,,,0.00,Wunderground v.1.15,2013-01-09 03:00:00,
2013-01-08 19:05:00,51.7,48.3,30.03,WNW,292,2.0,2.0,88,0.00,,,0.00,Wunderground v.1.15,2013-01-09 03:05:00,
2013-01-08 19:10:00,51.9,48.2,30.03,WNW,292,0.0,0.0,87,0.00,,,0.00,Wunderground v.1.15,2013-01-09 03:10:00,
2013-01-08 19:15:00,51.9,48.2,30.03,WNW,292,2.0,2.0,87,0.00,,,0.00,Wunderground v.1.15,2013-01-09 03:15:00,
2013-01-08 19:20:00,51.9,48.2,30.03,WNW,292,0.0,0.0,87,0.00,,,0.00,Wunderground v.1.15,2013-01-09 03:20:00,
2013-01-08 19:25:00,51.7,48.0,30.03,WNW,292,0.0,0.0,87,0.00,,,0.00,Wunderground v.1.15,2013-01-09 03:25:00,
2013-01-08 19:30:00,51.3,47.6,30.03,WNW,292,1.0,1.0,87,0.00,,,0.00,Wunderground v.1.15,2013-01-09 03:30:00,
2013-01-08 19:35:00,51.1,47.7,30.03,WNW,292,0.0,1.0,88,0.00,,,0.00,Wunderground v.1.15,2013-01-09 03:35:00,
2013-01-08 19:40:00,51.0,47.6,30.03,WNW,292,0.0,0.0,88,0.00,,,0.00,Wunderground v.1.15,2013-01-09 03:40:00,
2013-01-08 19:45:00,50.7,47.3,30.02,WNW,292,1.0,1.0,88,0.00,,,0.00,Wunderground v.1.15,2013-01-09 03:45:00,
2013-01-08 19:50:00,50.5,47.4,30.02,WNW,292,0.0,0.0,89,0.00,,,0.00,Wunderground v.1.15,2013-01-09 03:50:00,
2013-01-08 19:55:00,50.2,47.1,30.02,WNW,292,0.0,0.0,89,0.00,,,0.00,Wunderground v.1.15,2013-01-09 03:55:00,
2013-01-08 20:00:00,49.9,47.1,30.02,WNW,292,0.0,0.0,90,0.00,,,0.00,Wunderground v.1.15,2013-01-09 04:00:00,
2013-01-08 20:05:00,49.6,47.1,30.02,WNW,292,2.0,2.0,91,0.00,,,0.00,Wunderground v.1.15,2013-01-09 04:05:00,
2013-01-08 20:10:00,49.6,47.1,30.02,WNW,292,0.0,0.0,91,0.00,,,0.00,Wunderground v.1.15,2013-01-09 04:10:00,
2013-01-08 20:15:00,49.4,47.2,30.02,WNW,292,0.0,1.0,92,0.00,,,0.00,Wunderground v.1.15,2013-01-09 04:15:00,
2013-01-08 20:20:00,49.2,47.0,30.02,WNW,292,0.0,0.0,92,0.00,,,0.00,Wunderground v.1.15,2013-01-09 04:20:00,
2013-01-08 20:25:00,49.1,46.9,30.02,WNW,292,0.0,2.0,92,0.00,,,0.00,Wunderground v.1.15,2013-01-09 04:25:00,
2013-01-08 20:30:00,49.1,47.2,30.02,WNW,292,0.0,0.0,93,0.00,,,0.00,Wunderground v.1.15,2013-01-09 04:30:00,
2013-01-08 20:35:00,49.1,47.2,30.02,WNW,292,0.0,0.0,93,0.00,,,0.00,Wunderground v.1.15,2013-01-09 04:35:00,
2013-01-08 20:40:00,49.1,47.2,30.02,WNW,292,1.0,1.0,93,0.00,,,0.00,Wunderground v.1.15,2013-01-09 04:40:00,
2013-01-08 20:45:00,49.1,46.9,30.03,WNW,292,0.0,1.0,92,0.00,,,0.00,Wunderground v.1.15,2013-01-09 04:45:00,
2013-01-08 20:50:00,49.1,46.9,30.03,WNW,292,0.0,0.0,92,0.00,,,0.00,Wunderground v.1.15,2013-01-09 04:50:00,
2013-01-08 20:55:00,49.1,46.9,30.03,WNW,292,0.0,2.0,92,0.00,,,0.00,Wunderground v.1.15,2013-01-09 04:55:00,
2013-01-08 21:00:00,49.2,46.7,30.03,WNW,292,0.0,1.0,91,0.00,,,0.00,Wunderground v.1.15,2013-01-09 05:00:00,
2013-01-08 21:03:00,49.2,46.7,30.03,WNW,292,0.0,2.0,91,0.00,,,0.00,Wunderground v.1.15,2013-01-09 05:03:00,
2013-01-08 21:08:00,49.5,46.7,30.03,WNW,292,0.0,2.0,90,0.00,,,0.00,Wunderground v.1.15,2013-01-09 05:08:00,
2013-01-08 21:13:00,49.6,46.5,30.03,WNW,292,0.0,0.0,89,0.00,,,0.00,Wunderground v.1.15,2013-01-09 05:13:00,
2013-01-08 21:18:00,49.5,46.4,30.03,WNW,292,0.0,0.0,89,0.00,,,0.00,Wunderground v.1.15,2013-01-09 05:18:00,
2013-01-08 21:23:00,49.2,46.1,30.03,WNW,292,0.0,0.0,89,0.00,,,0.00,Wunderground v.1.15,2013-01-09 05:23:00,
2013-01-08 21:28:00,48.8,45.7,30.03,WNW,292,0.0,0.0,89,0.00,,,0.00,Wunderground v.1.15,2013-01-09 05:28:00,
2013-01-08 21:34:00,48.3,45.5,30.03,WNW,292,0.0,1.0,90,0.00,,,0.00,Wunderground v.1.15,2013-01-09 05:34:00,
2013-01-08 21:39:00,48.0,45.5,30.03,WNW,292,3.0,3.0,91,0.00,,,0.00,Wunderground v.1.15,2013-01-09 05:39:00,
2013-01-08 21:44:00,48.6,45.8,30.03,WNW,292,0.0,3.0,90,0.00,,,0.00,Wunderground v.1.15,2013-01-09 05:44:00,
2013-01-08 21:49:00,49.1,46.0,30.03,WNW,292,0.0,3.0,89,0.00,,,0.00,Wunderground v.1.15,2013-01-09 05:49:00,
2013-01-08 21:54:00,49.4,46.0,30.03,WNW,292,0.0,1.0,88,0.00,,,0.00,Wunderground v.1.15,2013-01-09 05:54:00,
2013-01-08 21:59:00,49.2,45.8,30.03,WNW,292,0.0,1.0,88,0.00,,,0.00,Wunderground v.1.15,2013-01-09 05:59:00,
2013-01-08 22:04:00,48.9,45.5,30.03,WNW,292,0.0,1.0,88,0.00,,,0.00,Wunderground v.1.15,2013-01-09 06:04:00,
2013-01-08 22:09:00,48.8,45.4,30.03,WNW,292,0.0,1.0,88,0.00,,,0.00,Wunderground v.1.15,2013-01-09 06:09:00,
2013-01-08 22:14:00,48.5,45.1,30.03,WNW,292,0.0,0.0,88,0.00,,,0.00,Wunderground v.1.15,2013-01-09 06:14:00,
2013-01-08 22:19:00,48.3,44.9,30.03,WNW,292,1.0,2.0,88,0.00,,,0.00,Wunderground v.1.15,2013-01-09 06:19:00,
2013-01-08 22:24:00,48.0,44.9,30.03,WNW,292,0.0,1.0,89,0.00,,,0.00,Wunderground v.1.15,2013-01-09 06:24:00,
2013-01-08 22:29:00,48.0,44.9,30.03,WNW,292,0.0,1.0,89,0.00,,,0.00,Wunderground v.1.15,2013-01-09 06:29:00,
2013-01-08 22:34:00,47.7,44.6,30.03,WNW,292,0.0,0.0,89,0.00,,,0.00,Wunderground v.1.15,2013-01-09 06:34:00,
2013-01-08 22:39:00,47.4,44.6,30.03,WNW,292,1.0,1.0,90,0.00,,,0.00,Wunderground v.1.15,2013-01-09 06:39:00,
2013-01-08 22:44:00,47.3,44.2,30.03,WNW,292,1.0,2.0,89,0.00,,,0.00,Wunderground v.1.15,2013-01-09 06:44:00,
2013-01-08 22:49:00,47.3,43.6,30.03,WNW,292,0.0,2.0,87,0.00,,,0.00,Wunderground v.1.15,2013-01-09 06:49:00,
2013-01-08 22:54:00,47.1,43.1,30.03,WNW,292,0.0,0.0,86,0.00,,,0.00,Wunderground v.1.15,2013-01-09 06:54:00,
2013-01-08 22:59:00,47.1,42.8,30.03,WNW,292,0.0,0.0,85,0.00,,,0.00,Wunderground v.1.15,2013-01-09 06:59:00,
2013-01-08 23:04:00,47.3,42.7,30.03,WNW,292,0.0,1.0,84,0.00,,,0.00,Wunderground v.1.15,2013-01-09 07:04:00,
2013-01-08 23:09:00,47.4,42.2,30.03,WNW,292,1.0,1.0,82,0.00,,,0.00,Wunderground v.1.15,2013-01-09 07:09:00,
2013-01-08 23:14:00,47.7,41.8,30.03,WNW,292,0.0,1.0,80,0.00,,,0.00,Wunderground v.1.15,2013-01-09 07:14:00,
2013-01-08 23:19:00,48.2,42.0,30.03,WNW,292,0.0,1.0,79,0.00,,,0.00,Wunderground v.1.15,2013-01-09 07:19:00,
2013-01-08 23:24:00,48.6,41.7,30.03,WNW,292,0.0,2.0,77,0.00,,,0.00,Wunderground v.1.15,2013-01-09 07:24:00,
2013-01-08 23:29:00,48.8,41.6,30.03,WNW,292,0.0,2.0,76,0.00,,,0.00,Wunderground v.1.15,2013-01-09 07:29:00,
2013-01-08 23:34:00,48.8,41.6,30.03,WNW,292,0.0,0.0,76,0.00,,,0.00,Wunderground v.1.15,2013-01-09 07:34:00,
2013-01-08 23:39:00,48.5,42.0,30.03,WNW,292,0.0,0.0,78,0.00,,,0.00,Wunderground v.1.15,2013-01-09 07:39:00,
2013-01-08 23:44:00,48.0,41.8,30.03,WNW,292,0.0,0.0,79,0.00,,,0.00,Wunderground v.1.15,2013-01-09 07:44:00,
2013-01-08 23:49:00,47.6,41.7,30.03,WNW,292,0.0,0.0,80,0.00,,,0.00,Wunderground v.1.15,2013-01-09 07:49:00,
2013-01-08 23:54:00,47.0,41.5,30.03,WNW,292,0.0,0.0,81,0.00,,,0.00,Wunderground v.1.15,2013-01-09 07:54:00,
2013-01-08 23:59:00,46.5,41.0,30.03,WNW,292,0.0,0.0,81,0.00,,,0.00,Wunderground v.1.15,2013-01-09 07:59:00,